Regional Weather Roundup
Issued by NWS Huntsville, AL

Home | Current Version | Previous Version | Text Only | Print | Product List | Glossary On
Versions: 1 2 3 4 5 6 7 8 9 10 11 12 13 14 15 16 17 18 19 20 21 22 23 24 25 26 27 28 29 30 31 32 33 34 35 36 37 38 39 40 41 42 43 44 45 46 47 48 49 50
000
ASUS44 KHUN 132010
RWRHUN

WEATHER ROUNDUP FOR THE TENNESSEE VALLEY
NATIONAL WEATHER SERVICE HUNTSVILLE AL
200 PM CST SAT FEB 13 2016

ALZ001>004-132100-
NORTHWEST ALABAMA

CITY           SKY/WX    TMP DP  RH WIND       PRES   REMARKS
COURTLAND HCN    N/A     34 N/A N/A N3          N/A
RUSSELLVILLE     N/A     37 N/A N/A MISG        N/A
SHOALS AIRPORT SUNNY     38   7  27 VRB6      30.48F WCI  33
SHOALS TVA RES   N/A     36 N/A N/A MISG        N/A
$$

ALZ005>007-016-132100-
NORTH CENTRAL ALABAMA

CITY           SKY/WX    TMP DP  RH WIND       PRES   REMARKS
CULLMAN AG STN   N/A     36 N/A N/A NE6         N/A  WCI  31
DECATUR AP     SUNNY     35   5  28 NW6       30.47F WCI  30
HUNTSVILLE AP  SUNNY     38   4  24 N9        30.45F WCI  31
HUN NWS/UAH      N/A     35  -1  21 N8          N/A  WCI  29
MERIDIANVILLE  SUNNY     34  -6  18 N8        30.45F WCI  27
REDSTONE ARSN  SUNNY     36   4  25 NE10      30.44F WCI  29
VINEMONT AP    FAIR      37   6  27 N7        30.44F WCI  31
$$

ALZ008>010-132100-
NORTHEAST ALABAMA

CITY           SKY/WX    TMP DP  RH WIND       PRES   REMARKS
ALBERTVILLE    SUNNY     36  18  48 N7        30.39F WCI  30
FORT PAYNE     SUNNY     37   0  20 N5G17     30.40S WCI  34
SCOTTSBORO AP  SUNNY     37   1  22 NE10      30.43F WCI  30
SCOTTSBORO HCN   N/A     37 N/A N/A MISG        N/A
VALLEY HEAD      N/A     36 N/A N/A MISG        N/A
$$

TNZ076-096-097-132100-
SOUTHEASTERN MIDDLE TENNESSEE

CITY           SKY/WX    TMP DP  RH WIND       PRES   REMARKS
TULLAHOMA      SUNNY     30   1  29 N10       30.44F WCI  21
WINCHESTER     SUNNY     30   3  31 N9        30.43F WCI  22
$$

...SURROUNDING SITES...

CITY           SKY/WX    TMP DP  RH WIND       PRES   REMARKS
ATLANTA        SUNNY     41   5  22 NW18G25   30.33F
ANNISTON       SUNNY     42   5  21 VRB6      30.40F
BIRMINGHAM     SUNNY     43   7  22 N8G18     30.43F
CHATTANOOGA    SUNNY     38   0  20 NW12G17   30.41F WCI  30
DALTON         SUNNY     37  10  32 N12G17    30.40F WCI  30
GADSDEN        SUNNY     41  12  30 N6        30.41F
GOLDEN TRNGL   NOT AVBL
HALEYVILLE     FAIR      38   7  27 N8        30.45F WCI  32
JACKSON TN     SUNNY     33   7  33 VRB6      30.52F WCI  28
MEMPHIS        MOSUNNY   38   6  26 VRB6      30.51F WCI  33
NASHVILLE      MOSUNNY   32   2  27 N13       30.51F WCI  22
OXFORD MS      FAIR      41   3  20 NE9       30.48F
ROME           SUNNY     41   5  22 N6G16     30.38F
SAVANNAH       SUNNY     34   5  29 NW9       30.49F WCI  26
TUPELO         SUNNY     41   9  26 NW9       30.48F
TUSCALOOSA     SUNNY     47   7  19 NE9       30.43F
$$

...GULF COAST WEATHER...

CITY           SKY/WX    TMP DP  RH WIND       PRES   REMARKS
GULFPORT       SUNNY     61  29  29 NE6       30.35F
PASCAGOULA     SUNNY     62  29  28 N10       30.35F
MOBILE         SUNNY     58  25  28 N12       30.35F
GULF SHORES    CLEAR     58  28  32 NE5       30.34F
PENSACOLA      SUNNY     60  17  18 N7        30.33F
DESTIN         SUNNY     61  20  20 N8        30.32F
PANAMA CITY    SUNNY     61  21  21 N8        30.31F
APPALACHICOLA  SUNNY     62  22  21 VRB3      30.29F
$$




USA.gov is the U.S. government's official web portal to all federal, state and local government web resources and services.